Simultaneous Nadir Overpasses (SNOs) Predictions

Prediction of SNOs between GOES-16 and NOAA-19 Satellite Orbit:

Table of predicted SNOs for the next 14.0 days since TLE Epoch: 7/1/2023
Index Date Time (GOES-16) GOES-16 Lat,Lon NOAA-19 Lat,Lon Distance(km) Time Diff (sec)
1 07/03/2023 13:51:41 -0.01, -75.21 0.63, -78.06 325.11 80
2 07/04/2023 13:36:58 -0.02, -75.21 -0.07, -75.13 10.17 80
3 07/05/2023 13:24:55 -0.03, -75.21 -0.70, -72.19 344.93 80
4 07/08/2023 01:47:43 0.04, -75.22 -0.38, -76.97 200.19 80
5 07/09/2023 01:33:01 0.04, -75.24 0.30, -74.04 135.70 80
6 07/10/2023 01:20:59 0.05, -75.25 0.99, -71.11 471.77 80
7 07/11/2023 13:55:42 -0.04, -75.28 0.76, -78.80 401.99 80
8 07/12/2023 13:43:38 -0.04, -75.29 0.11, -75.86 65.43 80
9 07/13/2023 13:28:56 -0.04, -75.31 -0.60, -72.94 271.28 80
